Flag for United Kingdom Weather past 2 weeks in Wolverhampton, England, United Kingdom

Now
61 °F

Fog.


Feels Like: 61 °F
Forecast: 45 / 61 °F
Wind: 6 mph from Northeast

Location: Birmingham / Airport

Current Time: Sep 20, 2014 at 6:03:14 AM

Latest Report: Sep 20, 2014 at 5:20 AM


Visibility: 1 mi

Pressure: 29.95 "Hg

Humidity: 94%

Dew point: 59 °F

Location of WolverhamptonLocation

Historic Weather in Wolverhampton — Graph

°F

Wolverhampton temperature yesterday

Maximum temperature yesterday: 63 °F (at 2:20 PM)
Minimum temperature yesterday: 59 °F (at 3:50 AM)
Average temperature yesterday: 61 °F

Past Weeks' High & Low Weather Summary

 TemperatureHumidityPressure
High73 °F (Sep 18, 3:20 PM)100% (Sep 9, 6:50 AM)30.36 "Hg (Sep 9, 6:50 AM)
Low48 °F (Sep 8, 4:20 AM)46% (Sep 7, 1:50 PM)29.80 "Hg (Sep 18, 3:20 PM)
Average61 °F78%30.08 "Hg
* Reported Sep 5 4:20 AM — Sep 20 4:50 AM, Wolverhampton, Weather by CustomWeather, © 2014

Note: Actual official high and low records may vary slightly from our data, if they occured in-between our weather recording intervals... More about our weather records

Advertising

Wolverhampton weather history for previous 24 hours

 ConditionsComfort  
Time TempWeatherWind HumidityBarometerVisibility
4:50 AM
Sep 20
61 °FFog.5 mph94%29.95 "Hg1 mi
4:20 AM61 °FFog.5 mph94%29.95 "Hg1 mi
3:50 AM61 °FFog.5 mph94%29.95 "Hg1 mi
3:20 AM61 °FFog.5 mph94%29.95 "Hg1 mi
2:50 AM61 °FFog.3 mph94%29.95 "Hg1 mi
2:20 AM61 °FFog.5 mph94%29.95 "Hg1 mi
1:50 AM61 °FFog.5 mph94%29.95 "Hg1 mi
1:20 AM61 °FFog.5 mph100%29.95 "Hg1 mi
12:50 AM61 °FFog.3 mph100%29.95 "Hg1 mi
12:20 AM61 °FFog.3 mph94%29.95 "Hg1 mi
11:50 PM
Sep 19
61 °FFog.3 mph100%29.95 "Hg1 mi
11:20 PM61 °FFog.3 mph100%29.95 "Hg1 mi
10:50 PM61 °FFog.3 mph100%29.95 "Hg1 mi
10:20 PM61 °FFog.5 mph100%29.95 "Hg1 mi
9:50 PM61 °FFog.5 mph100%29.95 "Hg1 mi
9:20 PM61 °FFog.3 mph100%29.95 "Hg1 mi
8:50 PM61 °FFog.5 mph100%29.92 "Hg1 mi
8:20 PM63 °FFog.5 mph94%29.92 "Hg1 mi
7:50 PM63 °FFog.5 mph94%29.92 "Hg1 mi
7:20 PM63 °FFog.5 mph94%29.92 "Hg1 mi
6:50 PM63 °FFog.5 mph94%29.92 "Hg1 mi
6:20 PM63 °FFog.6 mph94%29.89 "Hg1 mi
5:50 PM63 °FDrizzle. Fog.5 mph94%29.89 "Hg1 mi
5:20 PM63 °FDrizzle. Fog.5 mph94%29.89 "Hg1 mi
4:50 PM63 °FDrizzle. Fog.5 mph94%29.89 "Hg1 mi
4:20 PM63 °FDrizzle. Fog.5 mph94%29.89 "Hg1 mi
3:50 PM63 °FDrizzle. Fog.5 mph94%29.89 "Hg1 mi
3:20 PM61 °FDrizzle. Fog.7 mph100%29.89 "Hg1 mi
2:50 PM63 °FLow clouds.6 mph94%29.89 "Hg1 mi
2:20 PM63 °FLow clouds.6 mph94%29.89 "Hg2 mi
1:50 PM61 °FLow clouds.6 mph100%29.89 "Hg2 mi
1:20 PM61 °FFog.6 mph94%29.89 "Hg2 mi
12:50 PM61 °FFog.6 mph94%29.89 "Hg2 mi
12:20 PM61 °FLight rain. Fog.6 mph94%29.89 "Hg1 mi
11:50 AM61 °FLow clouds.8 mph94%29.89 "Hg1 mi
11:20 AM61 °FLow clouds.9 mph94%29.89 "Hg1 mi
10:50 AM59 °FFog.7 mph100%29.89 "Hg1 mi
10:20 AM59 °FFog.7 mph100%29.89 "Hg1 mi
9:50 AM61 °FDrizzle. Fog.8 mph94%29.89 "Hg1 mi
9:20 AM61 °FDrizzle. Low clouds.7 mph94%29.89 "Hg1 mi
8:50 AM59 °FDrizzle. Low clouds.8 mph100%29.86 "Hg1 mi
8:20 AM59 °FFog.9 mph94%29.86 "Hg1 mi
7:50 AM59 °FFog.9 mph94%29.86 "Hg1 mi
7:20 AM59 °FLow clouds.8 mph94%29.86 "Hg1 mi
6:50 AM59 °FLow clouds.8 mph94%29.86 "Hg1 mi
6:20 AM59 °FLow clouds.7 mph94%29.86 "Hg2 mi
Weather by CustomWeather, © 2014

See weather overviewHow to use our weather pages